Hourly Data Report for October 01, 2017

All times are specified in Local Standard Time (LST). Add 1 hour to adjust for Daylight Saving Time where and when it is observed.

SAULT STE MARIE A
ONTARIO

46°29'06.000" N
84°30'35.000" W
192.00 m
6057591
71260
YAM

Download Data

Hourly Data (October 2017)
Hourly Data Report for October 1, 2017
Temp Definition
°C
Dew Point Temp Definition
°C
Rel Hum Definition
%
Wind Dir Definition
10's deg

Wind Spd Definition
km/h
Visibility Definition
km
Stn Press Definition
kPa
Hmdx Definition


Wind Chill Definition


Weather Definition


TIME
00:00 Legend Double Dagger 3.9 3.7 98 8 3 24.1 100.44     LegendNANA
01:00 Legend Double Dagger 2.1 1.8 98 6 4 24.1 100.42     Mainly Clear
02:00 Legend Double Dagger 2.2 2.0 98 6 4 24.1 100.43     LegendNANA
03:00 Legend Double Dagger 1.5 1.4 99 36 3 24.1 100.39     LegendNANA
04:00 Legend Double Dagger 1.9 1.7 99 36 1 19.3 100.37     Mainly Clear
05:00 Legend Double Dagger 1.4 1.2 98 36 3 16.1 100.39     LegendNANA
06:00 Legend Double Dagger 3.4 3.2 99 7 5 0.6 100.36     Fog
07:00 Legend Double Dagger 7.0 6.9 99 8 8 0.2 100.35     Fog
08:00 Legend Double Dagger 8.2 8.1 99 8 13 0.6 100.36     LegendNANA
09:00 Legend Double Dagger 10.1 9.3 95 6 10 1.2 100.37     Fog
10:00 Legend Double Dagger 12.6 9.8 83 6 10 24.1 100.34     Clear
11:00 Legend Double Dagger 15.9 10.5 70 5 10 24.1 100.31     LegendNANA
12:00 Legend Double Dagger 18.0 7.2 49 18 9 24.1 100.31     LegendNANA
13:00 Legend Double Dagger 19.0 7.1 46 15 11 24.1 100.23     Mainly Clear
14:00 Legend Double Dagger 19.2 5.8 41 13 12 24.1 100.13     LegendNANA
15:00 Legend Double Dagger 19.0 5.0 39 15 13 24.1 100.06     LegendNANA
16:00 Legend Double Dagger 17.5 5.2 44 14 10 24.1 100.01     Mainly Clear
17:00 Legend Double Dagger 16.1 5.5 49 12 13 24.1 100.02     LegendNANA
18:00 Legend Double Dagger 14.8 7.0 59 11 12 24.1 100.04     LegendNANA
19:00 Legend Double Dagger 13.1 8.2 72 12 10 24.1 100.05     Mainly Clear
20:00 Legend Double Dagger 12.6 8.6 77 10 10 24.1 100.06     LegendNANA
21:00 Legend Double Dagger 12.0 9.3 84 10 14 24.1 100.06     LegendNANA
22:00 Legend Double Dagger 11.4 9.4 87 9 11 24.1 100.07     Mainly Clear
23:00 Legend Double Dagger 11.0 9.4 90 10 10 24.1 100.07     LegendNANA

Notes on Data Quality.

Legend

  • E = Estimated
  • M = Missing
  • NA = Not Available
  • ‡ = Partner data that is not subject to review by the National Climate Archives
Date modified: